Theta_e
351 351 351 349 349 348 348 349 350 349 349 349 349 349 349 348 347 347 347 347 347 347 347 347 347 347 347 347 348 347 347 347 346 345 346 348 349 349 349 350 348 349 348 345 345 348 347 347 346 347 347 346 345 342 338 340 343 342 341 340 341 340 339 337 336 335 334 335 336 337 337 335 335 337 336 335 335 336 338 339 340 341 342 343 343
352 352 351 349 349 348 348 349 350 350 350 350 350 350 349 349 348 347 346 346 346 346 345 346 347 347 347 347 347 347 347 348 347 346 345 346 348 349 348 348 348 349 350 347 345 346 346 346 346 346 347 346 346 345 340 337 340 344 343 341 341 341 340 340 339 337 334 334 335 336 337 336 336 337 338 338 338 338 339 340 340 341 342 343 343
353 352 351 351 350 349 350 349 348 349 349 350 350 350 350 351 350 349 347 346 346 346 346 346 346 347 347 347 347 347 347 348 348 347 346 345 346 348 348 348 348 348 349 349 347 345 344 345 345 346 346 347 346 346 345 339 337 342 344 343 342 342 340 341 340 339 338 335 334 335 336 337 338 339 339 340 341 340 341 341 342 342 343 343 343
354 353 352 351 350 349 349 347 346 346 348 350 351 351 352 352 353 352 350 347 347 347 346 346 346 346 345 345 346 347 347 347 347 347 347 346 346 346 346 348 349 349 349 350 350 347 344 343 344 344 345 346 346 346 347 344 337 337 343 345 343 342 342 341 341 340 340 338 336 335 335 337 338 338 340 341 341 342 341 341 341 342 343 342 343
355 354 352 351 351 350 348 346 346 346 348 350 351 353 354 354 353 353 353 351 350 349 347 346 346 346 345 345 346 347 347 347 347 347 347 347 347 346 345 346 348 350 350 351 351 349 346 345 344 344 345 345 345 346 347 346 341 336 338 343 345 344 343 342 341 341 341 340 339 338 336 337 338 338 340 341 342 342 341 341 340 341 342 342 342
355 356 354 351 351 349 348 347 347 348 349 351 352 353 353 354 354 352 352 352 352 351 350 349 348 347 346 345 345 346 347 348 347 347 348 347 347 347 346 346 347 348 349 350 351 350 348 346 345 345 345 344 342 344 347 346 345 340 336 340 344 345 344 343 343 341 341 341 341 340 339 337 338 338 339 340 341 342 341 341 340 340 341 341 342
354 354 353 351 349 349 350 350 350 351 352 353 353 353 353 353 353 353 353 353 352 351 351 351 350 348 348 346 346 346 346 346 345 347 348 348 347 347 347 346 346 346 346 347 349 350 350 348 346 344 346 346 343 343 345 346 346 344 338 336 340 344 345 344 343 343 341 341 341 341 341 339 338 338 338 339 340 340 340 341 340 339 339 340 340
354 353 352 351 350 349 350 351 351 352 352 353 352 352 353 353 353 353 352 352 352 351 351 351 351 350 349 348 348 347 346 345 345 346 348 348 348 347 347 346 346 346 346 346 347 348 349 348 348 347 346 346 345 343 343 343 344 346 343 337 335 339 344 345 344 343 342 342 341 341 341 341 340 338 338 338 339 339 339 340 339 338 338 339 339
352 352 351 352 352 351 352 352 352 353 352 351 352 351 352 352 351 351 350 350 350 351 351 351 351 349 349 349 349 349 348 347 347 347 348 348 348 348 347 346 345 346 346 347 346 347 348 348 348 349 347 345 345 345 343 342 342 343 344 342 336 335 339 344 344 343 343 342 341 341 341 341 340 340 339 339 338 339 338 338 338 338 338 339 339
350 350 351 352 353 352 352 352 351 352 351 351 351 350 349 350 349 348 349 350 350 351 350 350 350 348 348 348 349 348 347 347 348 348 348 348 348 348 347 347 346 347 347 347 347 346 347 348 348 348 348 347 345 345 344 343 342 341 342 343 340 335 334 340 343 343 343 342 342 341 341 341 341 341 341 340 340 340 339 339 339 339 340 340 340
350 349 350 351 351 350 350 349 349 350 350 350 351 349 348 349 349 349 349 350 351 350 349 349 349 348 348 348 347 346 345 345 347 348 348 347 346 346 347 348 348 348 348 348 347 347 347 347 348 347 348 349 348 347 346 344 344 343 342 342 343 341 336 336 340 343 343 342 342 341 341 341 341 341 341 341 341 341 340 341 341 340 340 341 341
350 348 348 348 347 347 347 347 349 350 350 350 350 349 349 349 349 348 347 347 349 349 348 348 348 348 347 347 346 345 344 344 345 346 346 346 344 345 348 349 349 349 349 349 348 347 347 347 347 347 347 348 348 349 349 347 345 345 343 342 343 344 342 337 336 340 342 342 342 342 341 340 340 341 341 341 341 340 340 340 340 340 340 341 341
348 346 347 346 345 345 346 347 348 348 348 347 347 346 348 349 348 346 346 347 347 348 348 347 347 347 347 346 345 344 344 343 343 344 344 345 345 345 347 349 349 350 350 349 348 348 347 346 347 347 347 347 348 348 349 350 348 346 344 344 343 345 345 342 337 337 339 341 341 341 341 340 340 339 341 340 341 340 339 339 339 339 340 340 341
347 345 345 344 345 346 347 346 345 343 343 344 344 345 346 347 347 346 346 347 346 347 347 347 347 347 346 346 344 344 343 342 343 344 344 345 346 346 347 348 349 349 349 349 348 348 347 346 347 346 346 347 347 347 348 350 350 349 347 345 344 345 345 345 342 338 336 338 339 340 340 340 340 339 339 339 339 339 338 338 338 338 339 339 339
344 343 344 344 345 345 344 342 340 341 342 344 344 345 346 346 346 346 346 346 346 346 346 346 346 346 345 346 346 345 343 343 343 342 342 343 343 344 345 346 346 347 347 347 346 347 346 346 346 346 346 347 347 346 348 349 351 351 350 348 346 345 345 346 345 343 339 338 337 338 340 340 340 339 338 338 339 339 338 338 338 338 338 338 338
342 342 343 343 342 341 340 340 339 341 344 344 344 345 345 345 346 346 346 345 345 345 345 345 345 345 344 346 346 344 345 344 342 341 341 342 341 341 342 343 344 344 343 343 344 345 345 345 346 347 346 346 347 348 348 349 350 351 351 350 349 348 347 346 346 345 343 341 338 337 338 339 339 339 338 337 338 338 338 338 337 337 337 337 337
340 340 340 339 339 340 340 340 340 340 342 342 343 344 344 345 345 345 345 345 345 345 345 344 343 343 343 345 344 345 346 344 341 342 341 340 340 340 342 342 341 340 340 340 342 343 343 344 344 345 346 345 346 347 347 348 350 351 350 349 350 350 349 348 347 346 346 344 342 339 337 338 339 339 338 336 336 337 337 337 337 337 337 337 337
338 338 337 337 338 340 340 340 340 340 340 341 342 343 343 344 344 344 345 344 345 345 344 344 343 342 343 344 343 343 343 342 342 344 342 339 339 339 340 340 339 338 338 339 340 342 341 342 342 343 344 344 345 345 346 346 348 349 349 349 348 349 350 350 349 348 347 346 345 343 341 338 337 338 338 337 335 335 336 336 336 336 336 336 337
337 336 336 337 339 340 340 340 340 340 340 340 341 341 342 343 342 343 343 343 344 344 343 343 341 342 343 342 342 342 342 342 343 343 342 340 338 338 338 338 337 337 336 337 338 340 341 341 341 342 343 344 344 344 344 345 345 346 348 350 349 348 348 350 351 350 349 348 347 346 344 342 340 338 339 338 336 335 334 335 335 336 336 337 337
337 337 337 338 339 339 340 340 340 339 339 340 341 340 340 342 342 342 342 342 343 342 341 341 341 341 341 342 342 341 341 341 341 340 341 341 339 337 337 337 335 335 335 336 336 337 338 339 339 340 341 343 343 344 344 344 344 344 346 347 348 348 347 349 351 352 351 350 349 347 346 345 343 341 339 339 338 337 336 335 335 336 337 338 338
338 338 338 338 338 340 340 340 339 337 336 339 341 340 340 341 341 342 342 341 341 340 339 340 341 340 340 341 340 339 339 339 340 339 339 340 339 337 336 336 335 334 334 334 334 333 334 335 337 338 339 340 341 342 344 344 345 345 344 343 344 346 347 348 350 352 352 351 351 350 348 346 346 345 343 341 340 339 338 337 335 336 337 338 338
338 337 336 337 339 339 339 338 336 335 336 338 340 341 341 341 341 341 340 339 339 339 339 340 340 339 339 339 339 338 338 338 339 339 338 339 338 337 336 335 336 334 332 333 333 332 332 333 334 335 337 338 339 340 341 343 345 345 345 344 343 344 346 348 349 350 350 351 351 352 351 349 347 346 345 344 343 341 340 339 338 337 337 337 339
338 336 336 338 339 339 338 337 336 336 337 338 339 340 341 342 340 338 337 337 338 339 339 338 338 337 337 337 337 337 338 338 337 338 338 338 338 337 336 335 335 335 332 330 331 331 332 332 333 334 335 337 338 339 340 342 343 344 345 345 345 344 345 346 348 349 349 350 352 352 352 351 350 349 347 347 345 344 343 341 340 339 336 336 337
338 338 338 339 339 338 337 336 336 337 338 338 338 338 340 341 338 336 336 337 338 339 338 338 336 336 336 337 337 337 337 337 337 337 338 338 337 336 335 335 335 334 332 330 329 329 329 330 332 333 334 335 336 337 339 340 341 341 342 343 343 344 345 346 347 348 348 350 351 352 352 351 351 351 350 349 346 346 345 343 343 342 340 337 335
338 338 339 338 338 336 336 337 338 338 338 338 338 338 338 339 337 337 337 337 338 339 337 336 335 336 337 337 337 336 336 336 337 337 338 338 337 335 335 335 335 333 332 331 330 329 328 328 330 331 332 333 334 335 337 338 339 340 340 342 342 342 344 345 346 347 347 348 349 351 352 351 351 351 352 352 349 348 347 346 345 345 344 342 337
337 338 338 336 336 336 337 337 338 338 338 339 338 338 338 338 338 338 338 337 337 338 337 335 336 337 337 337 335 335 334 335 336 337 337 337 336 335 335 333 333 332 331 330 330 330 329 328 328 329 330 331 332 334 335 336 338 339 340 341 342 342 342 343 345 345 345 346 347 349 351 351 351 351 351 352 352 350 349 348 346 345 347 347 344
337 338 338 337 336 337 338 337 336 337 338 338 338 338 337 336 337 337 337 337 337 337 337 336 337 337 337 336 334 333 333 335 336 335 335 336 335 334 334 333 332 331 330 329 329 329 329 328 326 326 328 330 331 332 332 333 334 336 337 340 342 342 342 342 343 344 345 345 345 346 348 350 350 350 351 352 353 353 352 350 348 346 346 347 348
337 339 338 337 337 337 336 336 336 336 336 337 337 337 337 336 336 335 335 336 336 336 336 337 337 337 337 336 334 332 332 334 334 332 331 331 331 332 333 333 332 331 330 330 328 327 327 326 326 325 325 327 327 327 328 329 331 333 335 338 340 342 343 343 343 343 344 346 346 346 346 348 349 349 349 350 352 353 353 352 350 347 346 346 347
337 337 337 336 336 336 336 335 336 336 336 336 336 336 337 336 336 335 335 335 336 336 336 337 337 337 337 337 335 333 332 333 332 330 327 324 326 328 329 331 332 331 331 330 328 327 325 325 325 324 323 323 323 323 325 326 328 330 333 334 336 340 343 344 344 344 344 345 346 346 346 345 346 346 347 348 350 352 353 353 352 350 348 347 346
337 337 336 335 336 336 334 335 335 334 335 336 336 337 336 336 336 336 336 336 336 337 337 337 337 337 336 337 336 334 332 332 332 331 326 321 321 324 325 326 328 329 329 329 327 325 324 324 324 324 323 322 323 323 323 324 324 328 331 331 332 336 339 341 342 344 345 346 346 346 345 344 345 345 346 347 349 351 352 352 352 351 349 348 347
337 336 335 335 335 334 333 334 334 333 334 335 336 336 336 336 336 336 336 336 336 336 336 336 336 336 335 335 335 334 332 331 332 331 328 323 320 321 323 323 324 325 326 327 327 325 324 324 324 324 324 323 323 323 323 323 324 326 330 332 332 333 335 336 338 340 344 346 346 345 345 345 344 345 346 347 348 349 350 351 351 352 350 349 348
337 336 335 334 334 333 333 334 334 332 332 333 334 335 336 337 337 336 336 336 335 335 335 335 336 336 336 334 334 334 332 331 331 331 330 327 322 320 321 322 322 323 325 325 326 325 324 324 324 324 324 323 323 323 323 323 323 325 327 331 333 333 334 335 336 337 341 344 345 345 345 345 344 344 345 346 347 348 350 350 350 350 350 350 349
336 335 335 334 334 334 334 334 333 332 332 332 332 334 335 337 337 336 336 336 336 335 336 336 335 335 335 334 334 334 332 331 331 331 330 329 326 321 320 321 322 323 324 325 325 325 325 324 324 324 324 324 324 323 323 323 324 324 325 328 332 334 335 336 337 338 340 343 345 345 344 344 344 344 344 345 346 347 348 349 349 348 349 350 350
334 335 335 335 334 335 335 334 334 333 333 332 332 334 335 336 336 336 337 336 336 336 336 336 335 335 335 334 333 333 333 332 331 331 330 329 328 325 321 321 322 322 323 325 325 325 325 324 324 324 324 324 324 323 323 323 324 324 325 327 330 333 335 336 337 338 339 341 343 343 344 343 343 343 344 345 346 347 347 348 347 348 349 350 350
334 334 335 335 335 335 335 335 335 334 333 333 333 333 335 335 335 336 336 336 335 335 335 335 334 334 334 333 333 333 333 332 331 330 331 329 329 328 324 322 322 322 323 325 325 325 325 325 324 324 324 324 323 323 323 323 324 325 326 327 330 332 335 336 337 337 337 338 340 341 341 342 343 343 344 346 346 346 347 347 348 348 349 349 350
335 335 335 335 335 334 334 334 334 334 334 334 332 332 333 333 333 333 335 335 335 335 333 332 331 332 333 333 333 333 332 332 331 331 331 330 329 328 326 324 323 324 325 325 325 325 325 325 325 324 324 324 323 323 323 323 324 325 326 328 330 332 334 335 336 336 336 336 337 338 340 341 342 343 344 346 346 346 347 347 349 349 350 350 350
334 332 332 332 332 331 331 332 332 333 333 334 333 332 333 333 332 332 333 334 335 334 331 328 327 329 331 332 332 332 332 331 331 331 330 330 329 328 328 326 325 326 326 327 327 326 326 325 325 324 324 323 323 323 323 324 325 325 326 328 330 332 333 334 335 336 337 337 337 338 339 339 340 341 342 344 345 346 346 347 349 350 350 350 350
331 331 331 331 330 330 330 331 331 331 332 332 332 331 332 333 332 332 333 334 334 333 328 325 326 327 329 331 331 331 332 331 331 330 330 329 328 328 327 327 327 327 328 328 328 327 326 325 325 324 323 323 323 323 323 324 325 325 327 328 330 331 333 334 335 335 336 338 339 339 340 339 339 339 340 342 343 345 345 346 348 349 350 350 350
332 332 332 331 331 330 330 330 330 330 330 330 330 330 331 332 332 332 333 333 334 331 326 325 326 326 328 330 330 331 330 330 330 330 330 329 328 327 327 327 327 328 328 328 328 327 326 325 324 324 323 322 323 323 324 324 325 325 327 328 330 330 331 333 335 335 336 337 339 340 340 340 340 339 340 341 343 345 346 347 347 348 349 349 349
333 333 332 331 331 331 330 330 330 329 329 330 330 330 330 332 332 333 333 333 333 330 327 326 326 326 328 329 330 330 330 330 330 330 329 329 329 328 327 328 328 328 329 329 328 327 326 325 324 323 323 323 323 323 324 324 325 325 326 327 328 329 329 331 333 335 336 337 339 340 340 341 341 342 342 343 343 345 346 346 346 346 347 348 349
333 332 331 331 331 332 331 330 330 330 330 330 330 330 331 332 332 333 333 333 332 330 328 327 326 326 327 327 329 330 330 330 329 329 328 329 330 329 328 328 329 329 329 329 328 327 325 324 323 323 323 323 323 323 324 325 325 325 325 326 327 328 329 330 331 333 335 337 338 340 341 342 343 343 344 344 344 344 344 345 345 345 346 348 350
333 332 331 332 334 333 332 330 330 330 330 330 329 330 331 331 331 332 332 332 331 330 329 328 326 326 325 326 328 329 329 329 328 328 328 329 330 330 329 329 329 329 330 329 328 327 325 324 323 322 323 323 323 324 324 324 325 325 326 326 327 327 328 329 330 331 334 336 338 340 340 341 343 345 346 346 346 345 345 344 344 344 345 347 349
332 332 332 334 334 332 332 331 330 331 330 330 330 330 331 331 330 330 330 331 331 330 329 328 327 325 324 325 326 328 328 328 327 327 328 328 329 330 330 330 330 331 330 329 329 327 325 323 323 322 323 323 323 323 324 324 325 325 325 326 327 327 328 329 329 330 332 335 337 339 340 340 342 344 345 346 346 346 346 344 343 342 343 344 348
332 333 334 334 334 333 331 330 331 330 330 330 329 328 329 330 330 330 330 331 331 330 329 328 327 326 326 326 326 327 327 327 327 327 327 327 328 329 329 329 330 330 330 330 329 326 324 323 322 322 323 323 324 324 324 325 325 325 325 325 326 327 327 327 328 329 331 334 337 339 340 340 341 342 343 343 344 344 344 343 342 342 342 343 346
333 334 335 335 334 333 332 331 331 330 330 330 329 328 329 329 329 329 329 329 330 330 329 328 327 327 327 327 328 328 327 327 327 327 327 328 328 328 329 329 330 330 329 328 326 323 322 322 322 322 323 323 324 324 324 324 325 325 325 325 325 326 326 327 327 328 328 331 336 339 340 341 341 342 342 342 341 341 342 341 340 340 341 343 343
334 335 334 335 335 334 333 332 330 330 330 330 329 328 329 329 328 328 327 327 329 329 329 328 327 327 327 329 330 330 328 328 327 326 326 327 328 329 330 330 329 328 326 325 323 321 321 322 323 323 324 324 324 324 323 323 324 324 325 325 325 325 326 326 327 327 327 328 332 337 340 340 341 342 342 342 341 342 341 341 341 341 342 343 343
334 335 335 335 335 333 333 332 330 331 330 330 329 329 330 329 328 327 326 326 327 327 328 327 326 326 328 331 331 330 329 329 326 325 326 327 328 330 329 328 326 324 323 323 322 321 322 323 324 325 325 324 323 322 322 322 323 323 323 324 324 325 325 326 326 327 327 327 329 333 338 339 340 342 343 343 343 343 342 342 343 343 343 344 345
334 335 335 336 336 335 333 331 331 330 330 329 329 330 330 328 327 326 326 325 326 327 327 326 325 325 327 329 330 330 330 329 325 325 325 326 328 328 326 324 323 323 324 324 323 323 323 324 325 324 322 320 319 319 320 321 321 321 322 323 324 324 324 325 326 327 327 327 328 331 336 338 339 341 343 343 343 344 344 344 344 344 345 346 346
335 336 336 336 336 336 334 332 331 330 330 330 330 330 329 328 327 327 327 326 326 326 326 325 323 323 324 326 328 330 330 327 324 325 325 326 327 326 324 323 324 324 325 325 324 324 324 325 324 321 318 317 317 318 319 320 320 321 322 323 323 324 324 325 326 327 327 328 328 330 334 336 337 339 342 343 344 344 344 344 345 345 346 347 347
336 336 337 337 336 336 334 333 332 331 330 331 330 329 329 328 328 328 327 327 326 326 327 325 322 320 320 323 325 327 326 324 325 326 325 325 326 325 323 324 325 325 325 324 324 324 324 325 324 321 318 317 317 318 319 320 320 320 321 323 323 324 325 325 326 326 327 328 328 329 334 337 337 339 343 344 344 345 345 345 345 346 346 347 348
336 335 337 337 336 334 332 331 332 331 330 330 330 329 328 328 329 328 326 326 326 327 327 325 322 320 320 320 321 321 322 323 324 324 324 326 326 324 323 324 325 324 324 323 323 323 323 324 323 320 318 316 317 319 320 320 320 320 321 322 323 324 325 325 326 327 328 329 328 330 335 337 338 340 342 344 345 345 345 346 346 347 347 348 349
Wind_Speed
14 13 12 11 10 10 10 9 8 7 7 7 8 8 8 9 9 10 11 12 12 11 11 11 11 12 12 12 12 12 11 10 9 9 10 11 13 14 16 18 17 17 17 18 20 20 20 21 21 20 20 20 20 20 20 21 20 20 19 19 18 18 18 17 18 18 18 17 16 16 16 16 15 14 14 13 13 12 12 12 12 11 11 10 9
14 12 12 11 9 9 8 8 7 6 7 7 7 8 9 10 10 11 12 13 14 13 13 13 13 13 14 14 14 13 12 11 10 9 9 10 12 12 14 17 18 17 18 19 20 21 21 21 22 21 21 21 21 21 21 21 22 21 20 20 19 19 19 18 18 19 19 18 18 17 17 17 16 15 15 14 14 13 13 13 13 12 12 11 10
14 12 12 11 9 8 7 7 7 6 7 8 8 10 11 12 12 12 13 14 14 14 14 14 14 14 16 17 16 14 13 13 13 12 11 11 11 12 13 15 17 17 19 20 21 22 22 23 23 22 22 22 22 22 21 22 23 23 22 21 21 20 20 20 19 19 19 19 19 19 18 18 17 17 16 16 15 15 14 14 14 13 13 12 11
14 12 11 11 10 8 7 8 8 8 8 9 10 11 12 12 12 12 12 13 14 15 15 16 17 17 17 18 18 16 15 15 16 15 13 12 12 13 14 14 16 17 19 21 21 22 23 24 23 23 23 23 23 22 22 22 23 24 24 23 22 22 21 21 21 20 20 20 20 19 19 19 18 18 18 17 17 16 16 15 15 15 14 13 13
14 12 12 12 11 9 8 9 9 10 11 12 13 13 13 14 14 13 12 13 14 15 15 16 18 18 18 18 18 18 17 16 16 16 14 13 13 14 15 15 16 17 19 20 21 23 24 25 24 24 24 24 23 23 23 23 23 24 25 25 24 23 22 22 22 22 21 21 21 20 20 20 20 19 19 19 18 18 17 17 17 16 15 15 14
14 13 13 12 11 10 10 9 9 11 12 13 13 14 15 16 16 16 14 14 14 13 14 16 17 18 18 18 18 18 17 16 16 16 15 15 14 15 15 16 16 18 19 20 21 23 24 25 25 26 25 25 25 24 24 24 24 24 25 26 25 24 24 23 23 23 23 22 22 22 21 21 21 21 21 20 20 19 19 18 18 17 17 16 15
14 13 13 12 11 11 11 10 10 12 14 14 15 15 16 17 17 17 17 17 15 13 13 14 15 17 18 17 17 16 17 17 17 17 17 17 16 16 16 17 18 19 21 21 21 22 24 25 26 27 26 26 26 25 25 25 25 25 25 26 27 26 25 25 25 24 24 24 23 23 23 22 22 22 22 22 21 21 20 20 19 19 18 17 17
15 15 14 12 11 12 12 12 11 13 15 15 15 15 15 16 16 16 17 18 17 15 14 13 15 16 16 16 17 17 18 18 19 19 18 18 18 18 18 19 19 20 22 22 22 21 22 24 26 27 28 28 28 27 27 26 26 26 26 26 27 28 27 27 26 26 25 25 25 24 24 24 23 23 23 23 23 22 22 21 21 20 19 19 18
14 15 14 13 12 12 12 11 11 12 13 12 12 13 13 15 16 15 15 16 17 16 15 15 15 15 16 15 15 16 18 18 18 19 19 19 19 20 20 20 20 20 21 22 22 22 22 23 25 27 29 30 30 30 29 28 28 27 27 27 27 28 29 28 28 27 27 26 26 26 26 25 25 24 24 24 23 23 23 22 22 21 21 20 19
12 13 12 11 11 11 10 8 8 9 10 10 10 10 11 12 14 15 14 15 16 16 16 16 16 16 16 15 15 17 19 18 16 16 18 20 20 21 21 20 19 20 20 21 22 22 22 23 25 28 30 31 32 31 31 30 29 28 28 28 28 28 29 30 29 28 28 28 28 27 27 27 26 26 25 25 24 24 23 23 23 22 22 21 21
7 7 7 7 8 7 6 5 6 8 9 10 11 10 11 11 13 14 14 15 16 16 16 16 15 16 15 15 16 17 18 17 16 16 18 21 23 23 22 21 20 20 20 21 22 22 23 23 25 27 29 31 32 32 32 32 31 30 29 28 28 28 28 30 31 30 30 30 29 29 29 28 28 27 27 26 26 25 24 24 24 23 23 22 22
2 1 2 3 3 3 4 5 6 7 8 9 10 11 11 11 11 12 14 15 15 14 13 13 14 14 15 14 14 14 15 14 14 16 18 20 22 23 23 22 21 21 22 23 23 24 24 25 26 27 29 30 32 33 33 33 33 33 32 30 29 29 29 29 31 32 31 31 31 31 31 30 30 29 29 28 27 27 26 26 25 24 24 24 23
2 1 1 1 2 3 3 3 4 6 7 8 9 9 9 9 9 10 12 13 14 13 11 12 11 11 12 13 15 14 11 11 12 12 14 16 18 21 23 23 22 23 24 25 26 27 27 27 27 27 28 29 31 32 33 33 34 34 34 34 32 31 31 30 31 32 33 33 32 32 32 32 31 31 30 29 29 28 28 27 27 26 25 25 25
3 2 2 0 1 1 2 2 4 7 8 8 8 8 7 6 7 8 9 10 12 10 9 8 6 6 7 9 12 10 8 8 7 8 10 13 15 17 19 21 23 24 25 25 26 27 29 29 28 28 28 29 30 31 33 33 35 36 36 36 35 34 33 32 32 32 33 34 34 33 33 33 33 32 32 31 31 30 30 29 28 28 27 27 26
4 4 3 3 3 2 1 3 6 7 7 6 5 6 7 6 5 6 7 7 8 7 6 5 5 6 6 5 4 5 7 6 6 11 13 12 12 12 14 17 17 18 19 21 23 25 27 27 28 28 28 29 31 32 33 34 34 34 35 37 37 36 36 34 34 33 33 34 35 35 35 35 34 34 34 33 33 32 31 31 30 29 29 28 28
5 4 4 3 2 1 3 5 6 5 5 5 6 6 6 5 4 4 5 5 5 5 5 6 6 5 3 2 1 2 3 3 9 15 11 9 12 12 12 12 12 13 15 17 19 21 24 25 26 27 28 30 31 32 33 34 34 33 33 35 36 37 38 38 37 36 35 35 35 36 36 36 36 36 36 35 35 34 33 32 32 31 31 30 29
5 4 3 2 2 2 4 5 5 5 5 6 6 5 5 4 4 4 5 4 4 5 5 6 7 4 2 2 1 1 2 4 9 8 6 12 14 11 11 11 13 15 16 17 16 17 19 21 23 25 26 29 31 32 33 33 35 34 33 33 34 35 38 40 40 38 37 36 36 37 37 37 36 36 37 37 36 36 35 34 33 33 32 31 30
4 3 2 2 2 2 4 5 4 4 6 7 6 5 5 5 5 5 5 4 4 5 6 7 6 4 4 4 3 3 4 5 5 3 8 13 10 10 13 13 14 16 17 17 16 16 17 18 20 22 23 25 28 31 32 33 34 35 35 35 34 34 36 39 41 40 39 38 37 37 38 38 38 38 37 37 37 37 36 36 35 34 33 32 31
2 3 2 3 3 3 3 4 3 4 6 7 6 6 5 5 5 6 6 5 5 5 6 7 5 4 4 4 5 5 6 5 3 2 6 7 7 14 15 13 16 17 16 16 15 16 17 18 20 21 22 23 25 29 32 34 34 35 36 36 36 35 35 37 39 40 41 40 39 39 39 38 39 39 39 38 38 38 38 37 36 35 34 33 32
3 3 3 3 3 3 3 3 3 5 7 6 5 5 5 4 4 5 6 5 5 5 6 6 4 5 6 5 5 5 5 6 6 5 3 3 8 12 12 16 19 17 15 16 16 15 16 18 19 20 22 23 24 26 29 32 34 36 36 36 37 37 36 36 37 39 41 41 41 40 40 40 40 40 40 40 39 39 39 38 37 36 35 34 33
4 4 3 3 3 3 3 4 5 7 7 5 4 4 4 4 4 5 5 5 4 5 6 5 4 5 6 5 5 5 4 6 6 4 3 3 4 6 10 17 18 18 18 17 18 18 18 19 19 20 22 23 24 24 25 29 32 35 37 37 37 39 39 38 38 38 39 40 41 41 41 42 41 41 41 41 41 40 39 39 39 37 36 35 34
5 4 3 3 3 3 4 5 7 7 6 5 3 3 4 4 5 5 5 4 3 3 4 4 4 5 5 5 5 5 3 3 3 3 3 4 4 5 9 11 11 18 23 20 20 21 19 18 19 20 21 23 24 23 24 26 28 31 33 34 36 38 40 40 39 39 39 39 40 40 41 42 42 42 42 41 41 41 40 39 39 39 38 36 35
4 3 4 4 4 4 5 6 6 5 4 5 4 4 4 4 5 5 4 4 3 3 3 3 3 4 4 4 5 4 3 3 4 5 4 4 3 4 8 11 10 14 20 23 23 21 19 20 20 20 20 21 22 23 25 26 27 29 30 31 33 35 38 40 41 40 40 39 40 40 40 40 41 43 43 43 42 41 41 40 40 40 39 38 36
6 5 5 5 5 5 6 6 5 4 3 4 5 5 5 5 4 4 4 4 3 3 3 3 4 4 4 4 4 4 3 4 5 6 5 5 5 4 7 11 8 11 19 23 21 21 21 21 19 19 20 21 22 23 25 27 28 29 30 31 32 33 36 38 40 42 42 41 41 41 41 40 41 41 42 43 43 43 42 41 40 40 40 40 39
7 7 6 5 6 7 5 4 4 3 3 3 4 5 4 4 4 4 5 5 3 3 4 4 3 3 2 3 4 4 4 4 4 5 5 6 6 5 7 9 6 11 18 18 17 21 22 20 19 20 21 22 22 24 25 27 29 29 30 32 33 34 36 37 39 41 42 43 43 43 43 42 41 41 41 42 43 43 43 42 41 40 40 40 41
8 8 6 5 5 5 3 3 3 3 3 4 4 5 4 3 4 5 5 4 3 3 3 3 2 2 2 2 3 4 4 5 4 4 5 6 6 5 6 7 7 11 13 13 15 16 17 20 22 22 22 21 21 23 25 27 29 30 30 32 34 35 36 37 38 39 41 43 44 44 44 43 43 42 41 42 43 44 44 44 43 42 40 39 40
8 8 6 4 4 4 3 3 2 2 3 4 4 4 4 3 4 5 4 3 3 3 3 3 3 3 3 3 3 4 4 4 3 3 4 5 7 7 5 5 5 6 7 10 12 11 14 21 24 22 21 21 22 23 25 27 29 30 30 31 33 35 36 37 38 39 39 41 42 44 44 44 44 43 42 42 42 43 44 44 44 44 43 41 39
8 8 7 5 4 4 4 3 2 2 3 4 5 5 5 4 3 4 5 4 3 4 4 5 5 5 5 4 3 4 4 3 2 2 3 4 6 7 6 4 4 4 4 6 7 6 10 18 21 21 22 23 25 27 27 28 29 29 30 30 31 32 33 35 37 38 39 40 41 42 43 44 45 44 43 43 42 42 43 44 44 44 45 44 43
8 8 7 6 5 5 4 4 4 3 3 4 5 6 6 6 5 5 7 6 5 5 5 6 6 6 5 5 4 4 3 3 4 3 3 5 5 5 5 5 5 5 3 3 5 5 10 17 18 20 26 29 29 30 30 29 30 29 30 31 31 32 31 31 33 36 38 39 41 42 42 43 44 44 43 43 43 42 42 43 44 44 44 44 44
9 8 7 7 7 7 6 5 5 5 4 4 5 5 6 6 7 8 8 7 6 7 7 7 7 7 6 6 6 6 5 5 5 6 5 5 6 5 5 5 5 4 4 4 5 8 13 18 18 21 29 32 32 33 33 32 32 30 30 31 31 31 31 31 31 33 35 37 39 41 41 41 42 42 43 43 44 43 42 42 43 44 44 43 43
10 9 9 9 10 9 7 7 6 6 6 6 6 6 7 7 8 9 9 8 7 7 8 8 8 8 8 8 8 8 7 6 7 8 8 6 7 7 7 7 7 6 7 6 4 9 16 20 23 27 29 31 33 35 35 34 33 31 29 30 31 31 31 32 33 33 33 35 37 38 40 41 40 41 42 43 44 44 43 42 42 42 43 43 42
11 11 12 12 12 10 9 8 8 7 6 7 8 9 9 9 9 10 9 8 8 8 9 9 9 10 11 11 10 9 9 8 9 10 11 9 8 8 8 9 10 9 10 8 6 11 20 23 25 29 30 30 33 34 35 36 35 32 30 30 31 31 31 32 32 32 32 33 34 35 38 40 40 40 41 43 44 45 44 43 42 42 42 43 42
13 14 14 14 13 12 10 11 11 9 8 7 7 8 10 10 9 10 10 9 10 10 11 12 12 12 13 13 12 10 10 11 11 12 13 11 10 10 10 10 12 12 12 11 9 10 19 24 25 29 31 30 31 33 34 35 36 35 32 30 30 30 31 31 31 31 31 32 32 32 34 37 40 41 41 42 43 43 44 43 43 42 42 43 42
14 15 15 15 15 14 13 13 14 13 11 9 8 9 10 11 10 10 11 11 11 12 13 14 14 13 14 14 13 12 12 13 14 14 15 14 13 12 12 11 12 13 13 13 12 11 16 23 26 29 31 29 30 33 34 34 36 36 34 32 30 30 30 30 31 31 31 31 31 30 30 33 37 40 40 40 40 40 40 41 41 42 42 42 42
14 16 17 17 17 17 17 17 17 16 15 12 10 10 10 10 9 10 11 12 13 13 14 15 15 14 14 14 14 13 13 15 16 16 17 17 16 15 14 13 13 15 16 15 15 13 14 20 26 28 30 30 31 33 34 34 34 34 34 33 30 29 30 30 31 32 31 31 31 30 30 30 33 37 39 38 37 38 38 38 39 40 41 41 40
15 16 16 16 15 15 16 16 17 18 17 15 12 11 11 9 8 9 11 11 12 12 13 14 14 13 13 14 14 12 13 15 17 17 18 19 19 18 17 15 14 15 18 17 17 17 16 19 25 28 29 29 31 33 33 33 33 32 32 32 30 29 30 30 31 32 32 32 31 31 31 31 32 35 38 39 38 37 37 37 38 39 40 40 39
14 12 12 12 11 10 10 11 12 13 13 14 13 12 12 11 10 10 10 10 10 11 12 12 12 11 12 13 14 13 14 16 17 17 18 19 20 20 19 18 16 17 18 19 19 19 18 20 24 28 29 29 30 32 31 30 31 32 31 30 29 28 29 30 30 31 31 31 31 31 32 32 32 33 36 39 39 39 37 37 37 38 39 39 39
13 12 11 10 10 9 8 8 8 8 9 11 13 13 13 13 12 12 12 11 11 11 11 11 10 10 11 12 13 13 14 16 16 16 17 18 20 21 21 19 18 18 18 20 20 19 20 21 23 25 28 29 28 30 30 28 29 30 31 31 29 27 26 28 30 30 30 30 31 31 32 33 33 33 34 37 39 40 39 38 37 38 38 39 39
14 13 11 10 10 9 8 8 7 7 8 9 11 12 13 13 13 13 13 12 12 12 11 11 10 11 11 12 12 13 14 15 15 15 16 18 19 20 20 20 19 19 19 20 20 20 21 22 21 22 26 28 27 27 29 29 27 27 27 26 26 26 25 25 27 29 29 29 30 31 32 33 33 33 33 35 38 39 39 40 40 39 38 38 39
15 13 12 11 10 9 9 9 9 10 9 9 10 11 12 13 14 13 13 13 14 14 12 12 12 12 12 12 12 13 13 14 14 15 16 17 18 20 20 20 20 19 18 19 20 20 21 21 20 21 23 26 26 26 28 27 24 24 24 24 24 26 26 25 26 28 28 28 29 30 31 31 32 32 33 35 37 38 39 40 40 40 39 38 38
17 16 14 11 10 11 11 11 11 11 10 10 10 11 12 12 13 13 13 14 15 15 14 13 13 13 13 12 12 12 12 13 14 16 16 15 17 19 19 19 19 19 18 19 19 20 20 19 19 19 19 22 24 24 24 24 23 24 27 26 25 26 27 27 28 27 26 27 28 29 29 30 30 32 33 35 37 37 37 38 38 39 39 39 38
19 17 14 12 12 13 14 13 13 12 11 11 10 11 12 13 13 13 14 15 16 15 15 14 14 14 13 11 11 11 12 14 15 16 15 13 14 17 18 18 18 18 18 18 20 20 18 17 19 19 17 18 22 24 23 25 27 27 27 25 24 25 26 24 25 27 25 24 26 29 30 30 30 31 33 35 37 37 37 38 38 39 40 40 39
20 17 15 14 15 15 15 15 15 14 12 11 11 12 14 15 15 15 16 17 16 16 16 15 15 15 13 11 11 11 13 14 15 14 13 12 12 14 16 16 17 18 19 19 21 22 19 17 19 20 17 18 23 26 25 26 27 26 26 25 24 24 22 17 16 21 22 20 22 26 30 31 30 30 33 34 36 37 37 38 39 39 40 40 40
21 18 17 17 16 16 16 16 16 16 15 13 12 13 15 16 16 17 17 17 17 17 17 16 16 15 15 13 12 12 13 13 13 13 12 12 12 12 14 15 16 18 19 20 21 22 22 20 20 22 21 20 23 26 27 27 27 28 28 27 25 24 22 18 16 19 22 21 21 24 27 29 28 29 32 35 36 37 38 39 39 38 39 40 41
21 20 20 19 18 18 18 18 18 18 17 14 13 14 15 15 15 15 15 16 17 18 18 17 16 16 15 14 14 14 13 12 12 13 13 14 13 13 14 15 17 19 20 21 20 20 21 21 22 24 25 23 24 28 31 30 29 30 29 28 27 25 24 23 22 26 27 24 23 23 24 26 26 27 32 35 36 37 38 38 39 39 38 38 39
22 22 22 21 19 18 19 19 19 19 17 15 15 16 16 14 13 12 13 14 16 18 18 16 16 15 15 15 15 16 15 13 13 14 14 15 14 14 15 17 19 21 21 20 18 16 17 18 20 25 27 27 27 31 34 32 30 31 30 30 30 29 28 28 30 33 33 29 27 23 20 22 25 26 30 34 34 35 37 38 38 38 37 36 37
24 24 24 23 21 19 19 19 20 19 18 16 16 16 15 14 12 11 11 12 15 17 17 15 15 15 15 15 16 17 16 14 14 14 14 14 13 14 16 18 21 22 21 18 16 16 17 17 20 24 27 27 29 32 33 33 32 33 34 34 34 33 34 34 33 34 34 33 30 24 19 20 23 24 29 32 32 33 35 35 36 37 36 36 35
25 25 25 23 21 20 19 19 20 20 19 18 17 16 15 14 13 11 10 11 14 15 15 13 13 14 14 14 15 16 16 15 15 14 13 12 12 13 16 20 22 22 20 18 17 18 19 19 21 23 23 25 28 31 32 33 33 34 36 36 35 33 31 28 26 28 30 29 29 26 22 22 22 24 27 29 29 31 33 33 34 35 35 35 34
24 24 25 25 23 23 22 21 21 21 22 21 19 17 16 14 13 11 10 12 13 14 13 12 12 12 12 13 13 14 15 16 15 13 12 12 13 14 17 20 21 21 20 20 20 21 21 21 22 21 21 25 28 30 32 32 32 34 34 32 32 30 25 17 15 20 25 26 27 27 25 24 24 25 25 25 27 30 31 31 32 33 33 33 33
24 25 25 24 24 24 24 23 23 23 23 22 20 18 16 14 13 11 10 12 13 14 13 12 12 12 12 13 13 14 16 15 13 12 13 13 14 16 18 18 18 20 21 21 22 23 23 22 22 21 22 26 28 30 31 31 32 33 31 31 32 30 24 16 14 17 21 25 29 27 24 24 25 25 23 19 20 25 29 29 29 31 31 31 31
26 26 24 23 22 23 24 26 27 27 24 21 20 19 16 14 12 11 11 12 13 14 13 13 13 13 14 14 12 12 13 11 11 13 13 14 16 18 16 14 14 17 20 21 23 24 24 23 22 21 22 26 28 29 29 30 31 32 31 32 33 31 26 22 21 17 12 17 27 28 24 23 24 25 22 13 8 14 23 26 27 28 30 30 30
Wind_Direction
237 240 241 246 251 251 247 241 241 244 251 269 281 286 292 294 295 296 294 292 290 293 296 298 299 300 300 297 296 300 301 299 292 283 275 264 256 250 245 247 246 238 233 227 220 217 217 218 219 219 219 218 217 218 218 218 218 218 220 223 224 224 223 221 221 221 220 221 223 226 228 229 229 229 229 229 229 232 234 237 239 242 245 247 249
240 242 246 253 254 252 249 242 248 256 263 277 282 286 295 298 297 296 295 294 292 294 294 293 294 295 297 296 294 298 300 298 292 285 281 268 256 250 244 245 245 239 236 232 224 221 220 219 220 220 221 221 220 219 219 219 219 219 219 222 225 225 226 225 224 224 223 223 224 226 229 230 231 231 230 230 231 233 235 238 241 243 246 247 248
239 241 246 251 253 260 264 263 274 283 284 290 291 294 299 301 299 294 291 291 292 292 291 291 290 292 295 295 294 295 296 296 292 286 282 272 258 251 246 245 245 241 237 234 229 225 223 221 221 221 222 223 222 222 221 220 221 221 220 221 224 225 227 228 227 227 226 225 225 225 228 230 231 232 233 233 232 234 236 239 241 243 246 247 247
236 241 250 257 264 271 276 283 296 304 302 302 303 300 298 300 300 296 292 289 288 288 290 290 289 291 294 294 294 294 293 294 293 286 279 272 266 261 255 248 246 244 240 237 233 231 230 227 224 224 223 223 223 224 224 223 222 222 222 222 224 225 227 228 229 230 229 228 227 227 227 229 231 233 234 236 235 235 236 239 242 244 244 247 247
237 243 255 267 274 277 280 287 301 309 309 309 308 303 297 294 293 293 294 294 293 292 290 287 287 290 291 291 290 288 289 292 291 286 276 268 272 274 267 257 249 248 247 242 237 235 233 231 230 228 227 226 225 225 225 225 225 225 224 224 224 225 227 228 230 231 231 231 230 229 229 229 231 233 235 236 237 237 237 239 242 244 245 245 247
245 248 257 267 273 279 284 291 306 310 308 307 303 300 295 292 291 293 296 296 295 299 298 292 289 288 285 286 284 282 286 291 293 290 277 266 274 279 273 264 255 252 253 250 244 240 236 233 233 232 231 230 229 227 226 226 228 228 226 225 225 226 227 229 230 231 232 233 233 232 231 231 232 234 235 236 238 238 239 240 241 243 245 246 246
251 252 259 269 274 281 288 295 305 307 303 300 297 298 296 295 296 297 298 297 294 298 301 300 298 293 289 286 281 279 282 287 291 291 281 270 271 275 272 267 261 259 258 255 250 245 241 237 236 236 235 234 232 230 228 228 228 229 228 228 227 227 228 229 230 232 232 233 234 234 233 233 233 234 236 237 238 239 240 241 242 243 244 246 247
251 252 261 267 271 283 292 291 290 295 299 299 299 301 303 304 306 304 301 301 299 298 300 301 303 302 299 292 285 282 281 283 284 284 283 276 271 271 270 269 266 263 260 257 254 249 245 242 239 238 237 237 236 233 232 230 229 229 229 229 228 228 228 230 231 232 233 234 235 236 236 235 235 235 236 238 239 241 242 243 244 245 245 246 246
251 256 266 268 273 288 295 288 284 292 300 303 306 309 312 312 313 313 308 304 301 299 301 300 298 299 298 292 288 288 287 285 281 279 280 276 273 272 272 272 270 265 261 258 256 255 252 248 244 240 238 239 239 238 236 234 232 231 230 231 230 229 228 229 231 233 234 235 235 236 237 237 237 237 237 238 240 241 243 245 246 246 247 247 247
258 262 270 272 280 290 295 296 297 303 307 311 316 319 322 317 315 316 313 307 301 299 300 298 296 296 294 291 291 293 292 289 282 277 276 276 276 275 275 274 271 268 265 261 259 258 257 255 251 245 241 240 241 241 240 239 237 236 234 233 233 232 229 229 230 233 235 236 236 236 237 238 238 238 238 239 240 241 243 245 246 247 248 249 249
268 267 275 282 289 295 305 327 327 320 319 321 323 324 324 317 314 317 315 310 302 300 304 302 300 297 294 294 296 297 297 292 282 274 271 273 277 277 276 273 269 268 268 268 265 261 260 259 255 251 247 244 243 243 241 241 241 240 239 236 235 235 232 230 230 232 234 236 237 238 238 238 239 239 240 240 240 241 242 244 246 248 249 250 250
237 256 286 297 317 334 339 345 334 324 323 323 322 320 318 313 311 315 315 312 307 307 312 312 307 303 301 301 302 303 302 298 288 279 274 273 278 280 278 275 272 269 269 271 270 266 265 264 260 256 254 251 247 244 242 242 242 241 241 239 237 237 235 233 232 232 233 235 237 238 239 239 240 240 240 240 240 241 242 243 245 247 248 249 251
135 106 77 19 6 354 333 325 317 314 314 312 310 311 313 312 312 314 314 312 311 314 319 317 312 309 311 312 311 311 312 310 303 296 287 281 282 284 284 281 277 273 273 273 273 272 271 269 265 261 259 256 252 250 246 244 244 243 242 241 239 237 237 236 234 234 234 235 236 238 240 240 241 241 240 241 241 241 242 243 244 246 247 248 249
134 134 138 197 275 262 269 292 307 307 307 305 302 304 311 315 316 318 316 311 311 319 325 319 305 304 313 314 316 324 335 330 322 320 312 300 294 292 291 289 285 284 281 278 276 275 273 271 267 264 263 261 259 255 250 245 243 243 243 243 242 239 238 238 237 236 236 236 237 238 239 240 240 241 241 242 242 243 243 244 245 246 246 248 249
150 155 164 178 191 198 256 315 320 313 310 313 314 316 321 319 315 316 316 314 319 335 343 328 305 306 312 309 320 338 340 348 348 331 323 314 311 311 308 304 301 298 291 287 284 278 274 270 265 263 263 264 262 259 254 249 244 242 243 243 244 243 241 239 238 238 238 238 238 239 239 240 241 241 242 242 243 244 244 245 246 246 247 248 250
157 160 170 182 209 269 319 327 332 331 332 339 340 344 343 337 335 331 325 324 333 344 343 332 323 321 316 297 322 324 316 347 335 326 330 333 330 332 333 332 331 323 312 308 301 289 280 274 269 267 266 265 263 260 256 255 251 246 245 245 245 245 244 242 240 239 239 239 240 240 240 240 241 242 242 242 243 244 245 245 246 247 248 249 251
182 196 218 251 277 296 322 332 344 356 359 359 358 2 9 10 7 355 340 333 334 332 330 336 336 324 274 255 309 309 274 326 327 324 334 333 335 341 341 340 339 332 327 324 318 305 295 287 281 278 275 271 266 263 259 258 257 252 248 248 248 248 247 245 243 240 239 240 240 241 241 242 242 242 243 243 243 244 244 245 246 247 249 250 251
209 236 262 292 282 278 315 339 357 5 1 359 1 3 8 17 14 7 2 350 339 329 325 335 343 330 289 262 265 264 261 307 323 310 316 322 332 334 327 331 334 332 329 327 322 315 310 306 300 293 287 280 273 268 263 259 259 257 254 253 252 251 249 248 246 244 241 240 240 241 242 242 243 243 244 245 244 244 244 245 246 248 249 250 251
252 277 291 297 288 289 319 343 354 356 352 348 355 2 8 21 21 14 14 7 354 343 337 340 349 350 328 301 292 282 263 270 276 289 316 317 321 325 328 332 331 329 331 329 324 318 314 312 309 304 298 289 279 272 266 261 261 259 256 255 255 255 253 250 248 246 245 243 241 241 241 242 243 243 244 245 246 246 245 245 246 248 249 250 251
260 273 274 277 283 296 311 320 330 342 342 337 347 5 11 22 24 17 12 8 1 352 351 355 352 344 339 325 314 306 281 274 276 281 293 297 315 324 328 326 327 331 333 330 326 320 313 309 307 304 301 295 286 277 270 266 263 260 258 256 256 256 255 252 249 247 247 246 243 242 242 242 243 243 244 245 247 247 247 247 247 247 249 250 250
253 254 247 257 272 274 278 297 322 334 337 332 339 3 9 6 2 1 355 350 351 349 351 358 353 339 335 326 313 313 309 298 288 278 263 270 303 318 321 326 331 332 330 328 328 325 317 310 304 299 297 295 291 284 277 272 267 264 262 260 258 257 256 253 250 249 249 248 245 243 242 243 243 243 244 245 246 248 249 249 249 248 248 249 249
250 241 239 264 268 254 272 303 318 327 338 338 326 333 346 339 333 334 335 338 344 351 355 356 352 340 333 325 313 310 309 293 280 284 275 261 268 296 314 326 325 322 326 329 325 324 322 317 310 303 299 297 295 290 284 280 275 271 267 264 262 260 257 255 253 251 250 249 247 245 243 243 244 244 244 244 245 247 249 250 251 250 249 248 248
228 235 249 257 246 251 283 302 311 318 334 342 333 317 310 316 326 329 341 360 10 9 2 354 348 340 336 332 322 313 289 271 285 298 283 262 284 302 307 314 303 302 320 328 325 325 325 323 320 315 309 304 301 295 290 286 282 280 276 272 270 266 261 258 255 253 251 250 248 247 246 245 245 245 245 244 244 246 247 249 251 251 251 249 248
207 227 228 224 237 265 281 287 299 306 308 321 328 321 301 298 321 339 352 3 10 2 354 348 345 339 341 344 343 338 313 298 303 299 283 281 304 300 294 310 305 294 313 325 327 327 326 326 327 324 318 312 306 302 296 292 288 285 282 279 276 272 267 262 258 254 253 251 250 248 248 247 247 246 246 245 245 245 246 247 249 251 252 251 250
210 217 218 234 256 263 262 270 282 280 276 285 306 319 305 286 311 332 338 340 332 335 342 346 350 345 348 352 353 356 346 333 324 311 299 286 284 281 290 304 297 297 313 321 322 323 326 330 330 325 321 318 313 309 304 298 293 290 285 281 277 273 270 266 262 258 254 253 252 250 249 249 249 247 246 246 246 245 245 246 247 249 252 252 252
210 211 225 249 249 231 228 263 270 250 259 270 283 305 306 298 316 321 320 316 305 318 334 341 345 339 341 350 351 355 355 347 333 317 305 285 275 275 295 309 294 290 306 315 316 319 322 327 329 326 323 320 317 314 310 305 300 297 292 284 279 275 270 267 266 262 258 255 253 252 250 250 250 249 248 246 245 245 245 245 245 247 249 252 253
207 212 221 224 211 212 239 266 269 257 264 269 276 287 293 307 324 318 312 306 296 302 311 311 320 323 317 320 335 342 345 347 337 323 311 298 301 300 297 311 305 291 300 309 310 309 313 322 328 330 327 320 316 312 308 305 302 301 299 292 284 279 274 269 266 264 262 258 255 253 251 250 250 250 249 248 246 245 245 245 245 245 247 249 251
210 215 214 218 224 232 252 261 267 287 282 274 277 276 273 280 298 310 312 303 296 303 303 299 306 315 308 292 307 327 331 329 321 328 329 318 319 319 307 294 297 308 309 306 310 310 318 325 327 329 330 323 317 314 309 303 299 297 298 295 289 284 279 273 267 264 262 260 257 255 253 251 250 250 250 249 248 247 246 246 246 245 246 247 249
217 217 216 230 237 237 253 262 268 286 288 280 280 273 267 266 271 293 304 297 287 289 294 297 300 307 304 281 283 301 297 286 285 286 313 320 321 326 322 307 295 302 307 307 311 304 315 325 323 322 327 326 322 320 316 308 302 296 292 291 289 286 283 279 273 268 264 261 259 256 255 253 251 251 251 250 249 247 247 246 246 246 246 247 248
215 219 225 232 231 238 249 252 262 273 270 269 274 270 264 265 270 283 294 293 283 279 283 288 292 299 300 287 279 277 265 262 271 268 280 317 328 325 328 325 306 289 282 296 302 291 303 319 318 314 322 326 325 322 318 314 310 303 293 289 286 284 283 282 279 275 270 265 262 259 256 254 252 251 251 251 250 248 247 247 247 247 247 247 248
217 225 238 238 236 242 243 242 256 264 257 254 259 265 266 268 270 275 285 286 281 282 281 281 286 288 283 280 276 270 262 259 259 259 268 300 324 323 323 322 313 298 284 278 279 288 299 309 312 312 317 321 322 321 318 316 315 309 298 290 287 284 282 280 278 276 273 269 265 262 258 255 253 252 251 251 251 249 248 247 247 247 247 247 248
226 234 244 245 244 243 237 238 250 257 256 253 253 257 261 264 264 267 273 273 274 283 283 277 278 276 273 275 275 266 261 264 260 253 257 275 301 313 316 314 312 308 291 271 256 285 298 304 306 310 314 315 318 319 317 315 314 312 303 292 288 287 284 281 278 276 274 271 268 265 261 257 254 253 253 252 251 250 250 248 248 248 247 247 247
233 238 244 247 250 249 242 243 249 252 253 251 252 256 257 258 257 256 259 259 264 275 278 275 273 271 272 276 275 265 261 268 266 255 253 260 277 293 303 303 304 308 298 276 262 282 301 307 307 308 312 313 313 315 315 313 314 314 308 297 290 288 285 282 279 276 275 273 271 268 264 260 257 255 255 253 251 250 250 249 249 249 248 247 247
233 237 244 249 253 255 252 251 253 254 252 250 252 255 256 258 257 255 253 252 257 265 269 271 272 270 269 271 272 266 264 268 268 259 254 256 263 274 286 290 293 303 302 284 274 280 298 308 309 309 312 313 311 313 314 312 311 313 310 301 292 287 284 282 280 277 275 274 274 272 269 264 259 256 255 252 250 249 249 248 249 250 249 248 247
243 247 251 254 258 262 260 258 259 258 254 250 249 252 254 257 260 258 254 254 259 264 268 271 276 276 271 266 267 266 264 267 268 264 259 257 260 264 272 280 285 296 302 293 282 280 287 302 307 308 311 312 310 311 313 312 311 310 308 303 295 288 284 281 279 278 275 273 273 273 273 269 263 258 255 252 249 248 248 248 248 249 249 248 248
258 257 256 257 259 261 261 259 261 262 257 249 245 249 251 254 264 266 260 259 263 266 270 275 279 280 275 268 267 269 270 271 272 269 263 261 263 264 266 274 280 292 301 298 291 286 285 295 303 304 307 309 309 310 312 311 311 310 306 302 297 291 286 282 279 278 276 274 272 270 270 270 267 262 257 253 251 249 249 248 248 249 249 249 249
252 245 241 239 239 245 250 253 258 259 253 246 244 249 251 254 267 273 268 265 265 266 270 276 278 277 275 272 272 273 274 275 276 272 267 265 266 267 267 271 279 291 298 298 296 294 290 292 297 302 305 307 308 310 311 310 310 309 306 302 298 293 289 285 280 277 276 274 272 269 267 266 266 265 261 257 254 252 250 249 248 248 248 248 249
225 216 215 216 220 229 234 236 242 244 242 243 247 253 254 256 263 271 272 270 266 265 268 275 279 278 276 273 272 272 272 276 277 275 276 275 271 268 267 270 280 290 293 295 297 297 294 293 294 298 303 306 308 309 311 310 307 305 304 303 302 299 293 288 283 280 276 272 269 268 266 264 264 263 263 260 255 253 251 249 247 247 247 248 249
213 213 219 223 224 227 228 231 247 261 261 256 257 263 263 260 261 266 272 273 266 263 267 278 286 285 281 277 275 274 275 277 279 282 289 289 281 272 268 272 281 285 287 293 296 296 295 296 296 296 300 304 306 306 309 312 308 303 302 302 305 307 302 294 288 285 280 273 268 266 265 265 264 262 262 261 256 252 250 248 248 248 249 250 250
224 232 242 240 229 230 239 249 267 275 270 261 262 269 269 263 259 262 267 267 264 263 268 279 289 290 287 283 280 279 279 277 280 289 298 297 287 276 271 275 281 281 284 291 294 294 295 296 296 295 297 301 304 307 311 313 309 305 305 303 302 303 304 299 292 286 282 277 272 267 265 264 262 261 261 260 256 251 248 248 249 250 250 251 252
240 249 255 245 233 240 250 258 267 267 263 266 265 264 264 261 259 261 262 260 259 262 268 277 287 292 291 287 282 281 281 281 287 296 300 297 288 281 279 280 280 279 283 288 289 290 293 295 295 295 295 298 303 309 312 311 308 305 305 302 297 297 300 299 294 287 280 275 272 268 263 259 256 256 256 255 255 252 249 249 248 249 249 250 252
244 253 254 242 240 249 255 260 263 259 262 272 266 258 261 263 264 264 262 261 259 260 265 273 284 292 293 288 282 282 284 287 293 299 300 294 283 279 282 283 281 280 282 284 285 287 291 291 291 294 293 293 300 307 308 308 308 305 302 299 295 297 299 298 295 291 282 272 267 264 261 257 252 250 249 250 252 252 251 250 250 249 249 249 250
247 251 245 241 247 251 254 258 259 257 263 270 266 263 262 262 265 267 265 264 262 259 261 267 278 289 292 287 283 285 289 293 298 302 303 299 288 281 281 282 280 281 280 280 283 288 289 285 286 289 286 286 298 306 306 307 309 307 303 299 293 292 295 293 293 294 288 277 264 259 260 258 250 246 246 246 249 251 251 253 253 253 252 251 250
246 244 239 243 249 251 252 256 257 256 261 266 268 270 267 263 264 265 265 265 261 258 259 262 272 284 288 287 286 288 292 297 302 304 304 303 298 289 285 284 282 281 281 281 284 288 287 283 282 284 284 287 297 304 304 306 307 307 305 301 292 285 282 279 279 282 283 280 268 258 258 259 251 245 245 247 247 249 252 254 256 256 255 253 251
242 241 242 246 250 251 252 255 257 258 260 263 267 272 271 264 256 254 258 260 257 256 258 262 272 281 284 286 287 289 294 298 302 306 305 302 298 291 288 288 287 286 287 288 288 287 285 281 279 282 290 293 294 299 305 307 306 305 304 302 297 287 277 272 272 274 276 277 270 259 257 258 252 243 244 247 248 248 249 252 254 256 255 253 250
239 241 243 245 250 252 252 255 260 260 259 262 269 273 268 255 246 250 258 258 257 257 259 264 274 280 283 285 286 290 293 295 300 308 307 302 296 290 289 291 292 294 296 294 293 292 290 285 281 285 293 296 293 299 307 309 306 302 299 298 298 293 284 278 274 272 272 271 268 264 259 256 250 242 242 246 248 246 247 249 251 252 253 252 249
240 243 245 246 249 251 251 254 256 258 261 266 272 271 258 247 248 256 262 263 263 261 260 266 274 278 282 285 287 290 291 291 298 305 304 300 296 291 293 298 301 302 301 297 296 299 299 297 291 289 293 298 301 306 311 311 308 304 300 296 294 292 290 286 278 270 268 266 263 261 260 257 249 241 241 245 246 246 246 247 248 250 250 250 249
244 247 247 248 251 253 253 252 252 256 262 267 269 261 245 242 251 256 261 270 269 263 261 266 273 278 283 286 288 289 286 287 294 300 300 298 293 292 299 306 307 305 303 303 304 304 304 306 304 300 304 313 317 317 316 314 311 309 305 298 293 291 287 283 275 266 262 261 256 251 254 259 251 242 243 245 243 244 246 245 245 247 248 248 249
249 251 251 253 256 256 255 252 252 258 263 265 263 251 239 240 246 251 264 272 266 260 261 267 276 282 284 285 285 283 282 286 289 293 298 295 289 295 305 308 307 304 305 310 310 306 306 309 307 307 315 324 325 323 321 317 314 312 305 296 291 289 282 273 269 262 257 255 251 244 244 251 249 243 243 243 240 241 244 244 244 246 247 247 249
250 253 256 259 260 262 263 261 259 260 263 264 257 242 234 238 242 251 267 269 259 255 260 270 280 286 288 288 285 280 281 284 284 290 297 290 288 301 307 305 303 303 308 314 313 310 310 309 307 309 317 326 328 325 322 319 318 316 306 295 293 289 279 270 266 261 254 251 246 238 235 241 243 238 234 234 236 239 241 243 244 243 244 245 247
250 253 255 257 260 269 276 277 274 268 261 257 251 239 232 234 242 257 266 259 253 254 261 274 283 289 295 295 291 282 277 279 286 293 295 289 293 305 307 300 300 305 311 315 313 310 309 307 308 314 322 328 327 323 320 320 322 320 310 301 297 287 277 275 270 259 249 247 241 230 225 232 234 229 223 217 225 239 239 241 242 241 242 243 243